Year,Month,Day,Hour,Minute,Value (Times are PST for temperature in C)
2014,04,23,00,00,5.10
2014,04,23,00,01,5.10
2014,04,23,00,02,5.10
2014,04,23,00,03,5.10
2014,04,23,00,04,5.10
2014,04,23,00,05,5.10
2014,04,23,00,06,5.10
2014,04,23,00,07,5.10
2014,04,23,00,08,5.00
2014,04,23,00,09,5.00
2014,04,23,00,10,5.00
2014,04,23,00,11,5.00
2014,04,23,00,12,5.00
2014,04,23,00,13,5.00
2014,04,23,00,14,5.00
2014,04,23,00,15,4.90
2014,04,23,00,16,4.90
2014,04,23,00,17,4.90
2014,04,23,00,18,4.90
2014,04,23,00,19,4.90
2014,04,23,00,20,4.90
2014,04,23,00,21,4.90
2014,04,23,00,22,4.90
2014,04,23,00,23,4.90
2014,04,23,00,24,4.90
2014,04,23,00,25,4.90
2014,04,23,00,26,4.90
2014,04,23,00,27,4.90
2014,04,23,00,28,4.90
2014,04,23,00,29,4.90
2014,04,23,00,30,4.90
2014,04,23,00,31,4.90
2014,04,23,00,32,4.90
2014,04,23,00,33,4.80
2014,04,23,00,34,4.80
2014,04,23,00,35,4.80
2014,04,23,00,36,4.80
2014,04,23,00,37,4.80
2014,04,23,00,38,4.80
2014,04,23,00,39,4.80
2014,04,23,00,40,4.80
2014,04,23,00,41,4.80
2014,04,23,00,42,4.80
2014,04,23,00,43,4.80
2014,04,23,00,44,4.80
2014,04,23,00,45,4.80
2014,04,23,00,46,4.90
2014,04,23,00,47,4.90
2014,04,23,00,48,4.90
2014,04,23,00,49,4.90
2014,04,23,00,50,4.90
2014,04,23,00,51,4.90
2014,04,23,00,52,4.90
2014,04,23,00,53,4.90
2014,04,23,00,54,4.90
2014,04,23,00,55,4.90
2014,04,23,00,56,4.90
2014,04,23,00,57,4.80
2014,04,23,00,58,4.80
2014,04,23,00,59,4.80
2014,04,23,01,00,4.80
2014,04,23,01,01,4.80
2014,04,23,01,02,4.80
2014,04,23,01,03,4.80
2014,04,23,01,04,4.80
2014,04,23,01,05,4.80
2014,04,23,01,06,4.80
2014,04,23,01,07,4.80
2014,04,23,01,08,4.80
2014,04,23,01,09,4.80
2014,04,23,01,10,4.80
2014,04,23,01,11,4.70
2014,04,23,01,12,4.70
2014,04,23,01,13,4.70
2014,04,23,01,14,4.70
2014,04,23,01,15,4.70
2014,04,23,01,16,4.70
2014,04,23,01,17,4.80
2014,04,23,01,18,4.80
2014,04,23,01,19,4.80
2014,04,23,01,20,4.80
2014,04,23,01,21,4.80
2014,04,23,01,22,4.80
2014,04,23,01,23,4.80
2014,04,23,01,24,4.80
2014,04,23,01,25,4.80
2014,04,23,01,26,4.80
2014,04,23,01,27,4.80
2014,04,23,01,28,4.80
2014,04,23,01,29,4.90
2014,04,23,01,30,4.90
2014,04,23,01,31,4.90
2014,04,23,01,32,4.80
2014,04,23,01,33,4.90
2014,04,23,01,34,4.90
2014,04,23,01,35,4.90
2014,04,23,01,36,4.90
2014,04,23,01,37,4.90
2014,04,23,01,38,4.90
2014,04,23,01,39,4.90
2014,04,23,01,40,4.90
2014,04,23,01,41,4.90
2014,04,23,01,42,4.90
2014,04,23,01,43,4.90
2014,04,23,01,44,4.90
2014,04,23,01,45,4.90
2014,04,23,01,46,4.90
2014,04,23,01,47,4.90
2014,04,23,01,48,4.80
2014,04,23,01,49,4.80
2014,04,23,01,50,4.80
2014,04,23,01,51,4.90
2014,04,23,01,52,4.90
2014,04,23,01,53,4.90
2014,04,23,01,54,4.80
2014,04,23,01,55,4.90
2014,04,23,01,56,4.90
2014,04,23,01,57,4.90
2014,04,23,01,58,4.90
2014,04,23,01,59,4.90
2014,04,23,02,00,4.90
2014,04,23,02,01,4.90
2014,04,23,02,02,4.90
2014,04,23,02,03,4.90
2014,04,23,02,04,4.90
2014,04,23,02,05,4.90
2014,04,23,02,06,4.90
2014,04,23,02,07,4.90
2014,04,23,02,08,4.90
2014,04,23,02,09,4.90
2014,04,23,02,10,4.90
2014,04,23,02,11,4.90
2014,04,23,02,12,4.90
2014,04,23,02,13,4.90
2014,04,23,02,14,5.00
2014,04,23,02,15,5.00
2014,04,23,02,16,5.00
2014,04,23,02,17,5.00
2014,04,23,02,18,5.00
2014,04,23,02,19,5.10
2014,04,23,02,20,5.10
2014,04,23,02,21,5.10
2014,04,23,02,22,5.10
2014,04,23,02,23,5.10
2014,04,23,02,24,5.10
2014,04,23,02,25,5.10
2014,04,23,02,26,5.10
2014,04,23,02,27,5.10
2014,04,23,02,28,5.10
2014,04,23,02,29,5.10
2014,04,23,02,30,5.10
2014,04,23,02,31,5.10
2014,04,23,02,32,5.10
2014,04,23,02,33,5.10
2014,04,23,02,34,5.10
2014,04,23,02,35,5.10
2014,04,23,02,36,5.10
2014,04,23,02,37,5.10
2014,04,23,02,38,5.10
2014,04,23,02,39,5.10
2014,04,23,02,40,5.10
2014,04,23,02,41,5.10
2014,04,23,02,42,5.10
2014,04,23,02,43,5.10
2014,04,23,02,44,5.10
2014,04,23,02,45,5.10
2014,04,23,02,46,5.10
2014,04,23,02,47,5.10
2014,04,23,02,48,5.10
2014,04,23,02,49,5.10
2014,04,23,02,50,5.10
2014,04,23,02,51,5.10
2014,04,23,02,52,5.10
2014,04,23,02,53,5.10
2014,04,23,02,54,5.10
2014,04,23,02,55,5.10
2014,04,23,02,56,5.10
2014,04,23,02,57,5.10
2014,04,23,02,58,5.10
2014,04,23,02,59,5.10
2014,04,23,03,00,5.10
2014,04,23,03,01,5.10
2014,04,23,03,02,5.10
2014,04,23,03,03,5.10
2014,04,23,03,04,5.10
2014,04,23,03,05,5.10
2014,04,23,03,06,5.10
2014,04,23,03,07,5.10
2014,04,23,03,08,5.10
2014,04,23,03,09,5.10
2014,04,23,03,10,5.10
2014,04,23,03,11,5.10
2014,04,23,03,12,5.10
2014,04,23,03,13,5.10
2014,04,23,03,14,5.10
2014,04,23,03,15,5.10
2014,04,23,03,16,5.10
2014,04,23,03,17,5.10
2014,04,23,03,18,5.10
2014,04,23,03,19,5.10
2014,04,23,03,20,5.10
2014,04,23,03,21,5.10
2014,04,23,03,22,5.10
2014,04,23,03,23,5.10
2014,04,23,03,24,5.10
2014,04,23,03,25,5.10
2014,04,23,03,26,5.10
2014,04,23,03,27,5.10
2014,04,23,03,28,5.10
2014,04,23,03,29,5.10
2014,04,23,03,30,5.10
2014,04,23,03,31,5.10
2014,04,23,03,32,5.10
2014,04,23,03,33,5.10
2014,04,23,03,34,5.10
2014,04,23,03,35,5.10
2014,04,23,03,36,5.10
2014,04,23,03,37,5.10
2014,04,23,03,38,5.10
2014,04,23,03,39,5.10
2014,04,23,03,40,5.10
2014,04,23,03,41,5.10
2014,04,23,03,42,5.20
2014,04,23,03,43,5.20
2014,04,23,03,44,5.20
2014,04,23,03,45,5.20
2014,04,23,03,46,5.20
2014,04,23,03,47,5.20
2014,04,23,03,48,5.20
2014,04,23,03,49,5.20
2014,04,23,03,50,5.20
2014,04,23,03,51,5.10
2014,04,23,03,52,5.20
2014,04,23,03,53,5.20
2014,04,23,03,54,5.10
2014,04,23,03,55,5.20
2014,04,23,03,56,5.20
2014,04,23,03,57,5.20
2014,04,23,03,58,5.20
2014,04,23,03,59,5.20
2014,04,23,04,00,5.20
2014,04,23,04,01,5.20
2014,04,23,04,02,5.20
2014,04,23,04,03,5.20
2014,04,23,04,04,5.20
2014,04,23,04,05,5.20
2014,04,23,04,06,5.20
2014,04,23,04,07,5.20
2014,04,23,04,08,5.20
2014,04,23,04,09,5.20
2014,04,23,04,10,5.20
2014,04,23,04,11,5.20
2014,04,23,04,12,5.20
2014,04,23,04,13,5.20
2014,04,23,04,14,5.20
2014,04,23,04,15,5.20
2014,04,23,04,16,5.20
2014,04,23,04,17,5.20
2014,04,23,04,18,5.20
2014,04,23,04,19,5.20
2014,04,23,04,20,5.20
2014,04,23,04,21,5.20
2014,04,23,04,22,5.20
2014,04,23,04,23,5.20
2014,04,23,04,24,5.20
2014,04,23,04,25,5.20
2014,04,23,04,26,5.20
2014,04,23,04,27,5.20
2014,04,23,04,28,5.20
2014,04,23,04,29,5.20
2014,04,23,04,30,5.20
2014,04,23,04,31,5.20
2014,04,23,04,32,5.20
2014,04,23,04,33,5.20
2014,04,23,04,34,5.20
2014,04,23,04,35,5.20
2014,04,23,04,36,5.20
2014,04,23,04,37,5.20
2014,04,23,04,38,5.20
2014,04,23,04,39,5.20
2014,04,23,04,40,5.20
2014,04,23,04,41,5.20
2014,04,23,04,42,5.20
2014,04,23,04,43,5.20
2014,04,23,04,44,5.20
2014,04,23,04,45,5.20
2014,04,23,04,46,5.20
2014,04,23,04,47,5.20
2014,04,23,04,48,5.20
2014,04,23,04,49,5.20
2014,04,23,04,50,5.20
2014,04,23,04,51,5.10
2014,04,23,04,52,5.20
2014,04,23,04,53,5.20
2014,04,23,04,54,5.20
2014,04,23,04,55,5.20
2014,04,23,04,56,5.20
2014,04,23,04,57,5.20
2014,04,23,04,58,5.20
2014,04,23,04,59,5.20
2014,04,23,05,00,5.20
2014,04,23,05,01,5.20
2014,04,23,05,02,5.20
2014,04,23,05,03,5.20
2014,04,23,05,04,5.20
2014,04,23,05,05,5.20
2014,04,23,05,06,5.20
2014,04,23,05,07,5.20
2014,04,23,05,08,5.20
2014,04,23,05,09,5.20
2014,04,23,05,10,5.20
2014,04,23,05,11,5.20
2014,04,23,05,12,5.20
2014,04,23,05,13,5.20
2014,04,23,05,14,5.20
2014,04,23,05,15,5.20
2014,04,23,05,16,5.20
2014,04,23,05,17,5.20
2014,04,23,05,18,5.20
2014,04,23,05,19,5.20
2014,04,23,05,20,5.20
2014,04,23,05,21,5.20
2014,04,23,05,22,5.20
2014,04,23,05,23,5.20
2014,04,23,05,24,5.20
2014,04,23,05,25,5.20
2014,04,23,05,26,5.20
2014,04,23,05,27,5.20
2014,04,23,05,28,5.20
2014,04,23,05,29,5.20
2014,04,23,05,30,5.20
2014,04,23,05,31,5.20
2014,04,23,05,32,5.20
2014,04,23,05,33,5.20
2014,04,23,05,34,5.20
2014,04,23,05,35,5.20
2014,04,23,05,36,5.20
2014,04,23,05,37,5.20
2014,04,23,05,38,5.20
2014,04,23,05,39,5.20
2014,04,23,05,40,5.20
2014,04,23,05,41,5.20
2014,04,23,05,42,5.20
2014,04,23,05,43,5.20
2014,04,23,05,44,5.20
2014,04,23,05,45,5.20
2014,04,23,05,46,5.20
2014,04,23,05,47,5.10
2014,04,23,05,48,5.10
2014,04,23,05,49,5.10
2014,04,23,05,50,5.10
2014,04,23,05,51,5.10
2014,04,23,05,52,5.10
2014,04,23,05,53,5.10
2014,04,23,05,54,5.10
2014,04,23,05,55,5.10
2014,04,23,05,56,5.10
2014,04,23,05,57,5.10
2014,04,23,05,58,5.10
2014,04,23,05,59,5.10
2014,04,23,06,00,5.10
2014,04,23,06,01,5.10
2014,04,23,06,02,5.10
2014,04,23,06,03,5.10
2014,04,23,06,04,5.10
2014,04,23,06,05,5.10
2014,04,23,06,06,5.00
2014,04,23,06,07,5.00
2014,04,23,06,08,5.00
2014,04,23,06,09,5.00
2014,04,23,06,10,5.00
2014,04,23,06,11,5.00
2014,04,23,06,12,5.00
2014,04,23,06,13,5.00
2014,04,23,06,14,5.00
2014,04,23,06,15,5.00
2014,04,23,06,16,5.00
2014,04,23,06,17,5.00
2014,04,23,06,18,5.00
2014,04,23,06,19,5.10
2014,04,23,06,20,5.10
2014,04,23,06,21,5.10
2014,04,23,06,22,5.10
2014,04,23,06,23,5.10
2014,04,23,06,24,5.10
2014,04,23,06,25,5.10
2014,04,23,06,26,5.10
2014,04,23,06,27,5.10
2014,04,23,06,28,5.10
2014,04,23,06,29,5.10
2014,04,23,06,30,5.10
2014,04,23,06,31,5.10
2014,04,23,06,32,5.10
2014,04,23,06,33,5.20
2014,04,23,06,34,5.20
2014,04,23,06,35,5.10
2014,04,23,06,36,5.10
2014,04,23,06,37,5.10
2014,04,23,06,38,5.10
2014,04,23,06,39,5.10
2014,04,23,06,40,5.10
2014,04,23,06,41,5.10
2014,04,23,06,42,5.10
2014,04,23,06,43,5.20
2014,04,23,06,44,5.20
2014,04,23,06,45,5.20
2014,04,23,06,46,5.20
2014,04,23,06,47,5.20
2014,04,23,06,48,5.20
2014,04,23,06,49,5.20
2014,04,23,06,50,5.20
2014,04,23,06,51,5.20
2014,04,23,06,52,5.20
2014,04,23,06,53,5.20
2014,04,23,06,54,5.20
2014,04,23,06,55,5.30
2014,04,23,06,56,5.30
2014,04,23,06,57,5.30
2014,04,23,06,58,5.30
2014,04,23,06,59,5.30
2014,04,23,07,00,5.30
2014,04,23,07,01,5.30
2014,04,23,07,02,5.30
2014,04,23,07,03,5.30
2014,04,23,07,04,5.30
2014,04,23,07,05,5.30
2014,04,23,07,06,5.30
2014,04,23,07,07,5.30
2014,04,23,07,08,5.30
2014,04,23,07,09,5.40
2014,04,23,07,10,5.40
2014,04,23,07,11,5.40
2014,04,23,07,12,5.40
2014,04,23,07,13,5.40
2014,04,23,07,14,5.40
2014,04,23,07,15,5.40
2014,04,23,07,16,5.40
2014,04,23,07,17,5.40
2014,04,23,07,18,5.40
2014,04,23,07,19,5.40
2014,04,23,07,20,5.40
2014,04,23,07,21,5.40
2014,04,23,07,22,5.40
2014,04,23,07,23,5.50
2014,04,23,07,24,5.50
2014,04,23,07,25,5.50
2014,04,23,07,26,5.60
2014,04,23,07,27,5.60
2014,04,23,07,28,5.60
2014,04,23,07,29,5.70
2014,04,23,07,30,5.70
2014,04,23,07,31,5.70
2014,04,23,07,32,5.70
2014,04,23,07,33,5.70
2014,04,23,07,34,5.70
2014,04,23,07,35,5.70
2014,04,23,07,36,5.80
2014,04,23,07,37,5.80
2014,04,23,07,38,5.80
2014,04,23,07,39,5.80
2014,04,23,07,40,5.80
2014,04,23,07,41,5.90
2014,04,23,07,42,5.90
2014,04,23,07,43,6.00
2014,04,23,07,44,6.10
2014,04,23,07,45,6.20
2014,04,23,07,46,6.20
2014,04,23,07,47,6.20
2014,04,23,07,48,6.30
2014,04,23,07,49,6.30
2014,04,23,07,50,6.30
2014,04,23,07,51,6.40
2014,04,23,07,52,6.40
2014,04,23,07,53,6.40
2014,04,23,07,54,6.40
2014,04,23,07,55,6.50
2014,04,23,07,56,6.50
2014,04,23,07,57,6.50
2014,04,23,07,58,6.60
2014,04,23,07,59,6.60
2014,04,23,08,00,6.60
2014,04,23,08,01,6.60
2014,04,23,08,02,6.60
2014,04,23,08,03,6.50
2014,04,23,08,04,6.50
2014,04,23,08,05,6.50
2014,04,23,08,06,6.50
2014,04,23,08,07,6.60
2014,04,23,08,08,6.60
2014,04,23,08,09,6.60
2014,04,23,08,10,6.60
2014,04,23,08,11,6.70
2014,04,23,08,12,6.70
2014,04,23,08,13,6.70
2014,04,23,08,14,6.70
2014,04,23,08,15,6.80
2014,04,23,08,16,6.80
2014,04,23,08,17,6.80
2014,04,23,08,18,6.80
2014,04,23,08,19,6.80
2014,04,23,08,20,6.80
2014,04,23,08,21,6.80
2014,04,23,08,22,6.80
2014,04,23,08,23,6.80
2014,04,23,08,24,6.80
2014,04,23,08,25,6.80
2014,04,23,08,26,6.80
2014,04,23,08,27,6.90
2014,04,23,08,28,6.90
2014,04,23,08,29,6.90
2014,04,23,08,30,6.90
2014,04,23,08,31,6.90
2014,04,23,08,32,7.00
2014,04,23,08,33,7.00
2014,04,23,08,34,7.10
2014,04,23,08,35,7.20
2014,04,23,08,36,7.30
2014,04,23,08,37,7.40
2014,04,23,08,38,7.40
2014,04,23,08,39,7.40
2014,04,23,08,40,7.50
2014,04,23,08,41,7.50
2014,04,23,08,42,7.60
2014,04,23,08,43,7.70
2014,04,23,08,44,7.70
2014,04,23,08,45,7.70
2014,04,23,08,46,7.70
2014,04,23,08,47,7.70
2014,04,23,08,48,7.70
2014,04,23,08,49,7.70
2014,04,23,08,50,7.70
2014,04,23,08,51,7.70
2014,04,23,08,52,7.70
2014,04,23,08,53,7.70
2014,04,23,08,54,7.70
2014,04,23,08,55,7.80
2014,04,23,08,56,7.80
2014,04,23,08,57,7.80
2014,04,23,08,58,7.80
2014,04,23,08,59,7.90
2014,04,23,09,00,7.90
2014,04,23,09,01,8.00
2014,04,23,09,02,7.90
2014,04,23,09,03,7.90
2014,04,23,09,04,7.90
2014,04,23,09,05,7.90
2014,04,23,09,06,7.90
2014,04,23,09,07,7.90
2014,04,23,09,08,7.80
2014,04,23,09,09,7.80
2014,04,23,09,10,7.80
2014,04,23,09,11,7.80
2014,04,23,09,12,7.70
2014,04,23,09,13,7.70
2014,04,23,09,14,7.70
2014,04,23,09,15,7.70
2014,04,23,09,16,7.70
2014,04,23,09,17,7.70
2014,04,23,09,18,7.70
2014,04,23,09,19,7.80
2014,04,23,09,20,7.90
2014,04,23,09,21,7.90
2014,04,23,09,22,8.00
2014,04,23,09,23,8.10
2014,04,23,09,24,8.10
2014,04,23,09,25,8.20
2014,04,23,09,26,8.20
2014,04,23,09,27,8.30
2014,04,23,09,28,8.30
2014,04,23,09,29,8.40
2014,04,23,09,30,8.50
2014,04,23,09,31,8.60
2014,04,23,09,32,8.70
2014,04,23,09,33,8.60
2014,04,23,09,34,8.60
2014,04,23,09,35,8.50
2014,04,23,09,36,8.50
2014,04,23,09,37,8.40
2014,04,23,09,38,8.40
2014,04,23,09,39,8.40
2014,04,23,09,40,8.40
2014,04,23,09,41,8.40
2014,04,23,09,42,8.40
2014,04,23,09,43,8.40
2014,04,23,09,44,8.40
2014,04,23,09,45,8.40
2014,04,23,09,46,8.50
2014,04,23,09,47,8.50
2014,04,23,09,48,8.50
2014,04,23,09,49,8.60
2014,04,23,09,50,8.60
2014,04,23,09,51,8.60
2014,04,23,09,52,8.60
2014,04,23,09,53,8.60
2014,04,23,09,54,8.50
2014,04,23,09,55,8.50
2014,04,23,09,56,8.50
2014,04,23,09,57,8.50
2014,04,23,09,58,8.60
2014,04,23,09,59,8.70
2014,04,23,10,00,8.70
2014,04,23,10,01,8.70
2014,04,23,10,02,8.70
2014,04,23,10,03,8.70
2014,04,23,10,04,8.70
2014,04,23,10,05,8.70
2014,04,23,10,06,8.70
2014,04,23,10,07,8.80
2014,04,23,10,08,8.80
2014,04,23,10,09,8.80
2014,04,23,10,10,8.90
2014,04,23,10,11,8.90
2014,04,23,10,12,8.90
2014,04,23,10,13,8.80
2014,04,23,10,14,8.80
2014,04,23,10,15,8.80
2014,04,23,10,16,8.80
2014,04,23,10,17,8.90
2014,04,23,10,18,8.90
2014,04,23,10,19,8.90
2014,04,23,10,20,8.90
2014,04,23,10,21,8.90
2014,04,23,10,22,9.00
2014,04,23,10,23,9.10
2014,04,23,10,24,9.20
2014,04,23,10,25,9.30
2014,04,23,10,26,9.30
2014,04,23,10,27,9.30
2014,04,23,10,28,9.30
2014,04,23,10,29,9.40
2014,04,23,10,30,9.50
2014,04,23,10,31,9.60
2014,04,23,10,32,9.60
2014,04,23,10,33,9.50
2014,04,23,10,34,9.50
2014,04,23,10,35,9.40
2014,04,23,10,36,9.30
2014,04,23,10,37,9.30
2014,04,23,10,38,9.30
2014,04,23,10,39,9.40
2014,04,23,10,40,9.40
2014,04,23,10,41,9.30
2014,04,23,10,42,9.30
2014,04,23,10,43,9.30
2014,04,23,10,44,9.30
2014,04,23,10,45,9.40
2014,04,23,10,46,9.50
2014,04,23,10,47,9.60
2014,04,23,10,48,9.60
2014,04,23,10,49,9.70
2014,04,23,10,50,9.70
2014,04,23,10,51,9.60
2014,04,23,10,52,9.60
2014,04,23,10,53,9.70
2014,04,23,10,54,9.80
2014,04,23,10,55,9.80
2014,04,23,10,56,9.70
2014,04,23,10,57,9.70
2014,04,23,10,58,9.70
2014,04,23,10,59,9.70
2014,04,23,11,00,9.70
2014,04,23,11,01,9.70
2014,04,23,11,02,9.70
2014,04,23,11,03,9.70
2014,04,23,11,04,9.60
2014,04,23,11,05,9.60
2014,04,23,11,06,9.50
2014,04,23,11,07,9.50
2014,04,23,11,08,9.60
2014,04,23,11,09,9.60
2014,04,23,11,10,9.60
2014,04,23,11,11,9.70
2014,04,23,11,12,9.70
2014,04,23,11,13,9.70
2014,04,23,11,14,9.60
2014,04,23,11,15,9.60
2014,04,23,11,16,9.70
2014,04,23,11,17,9.70
2014,04,23,11,18,9.60
2014,04,23,11,19,9.60
2014,04,23,11,20,9.50
2014,04,23,11,21,9.50
2014,04,23,11,22,9.50
2014,04,23,11,23,9.60
2014,04,23,11,24,9.60
2014,04,23,11,25,9.70
2014,04,23,11,26,9.80
2014,04,23,11,27,9.80
2014,04,23,11,28,9.90
2014,04,23,11,29,9.90
2014,04,23,11,30,9.90
2014,04,23,11,31,9.80
2014,04,23,11,32,9.70
2014,04,23,11,33,9.70
2014,04,23,11,34,9.70
2014,04,23,11,35,9.80
2014,04,23,11,36,9.80
2014,04,23,11,37,9.80
2014,04,23,11,38,9.80
2014,04,23,11,39,9.80
2014,04,23,11,40,9.70
2014,04,23,11,41,9.70
2014,04,23,11,42,9.70
2014,04,23,11,43,9.70
2014,04,23,11,44,9.70
2014,04,23,11,45,9.70
2014,04,23,11,46,9.80
2014,04,23,11,47,9.80
2014,04,23,11,48,9.90
2014,04,23,11,49,9.90
2014,04,23,11,50,9.90
2014,04,23,11,51,9.80
2014,04,23,11,52,9.80
2014,04,23,11,53,9.80
2014,04,23,11,54,9.70
2014,04,23,11,55,9.70
2014,04,23,11,56,9.70
2014,04,23,11,57,9.60
2014,04,23,11,58,9.50
2014,04,23,11,59,9.50
2014,04,23,12,00,9.40
2014,04,23,12,01,9.30
2014,04,23,12,02,9.20
2014,04,23,12,03,9.20
2014,04,23,12,04,9.20
2014,04,23,12,05,9.10
2014,04,23,12,06,9.10
2014,04,23,12,07,9.10
2014,04,23,12,08,9.10
2014,04,23,12,09,9.10
2014,04,23,12,10,9.10
2014,04,23,12,11,9.10
2014,04,23,12,12,9.10
2014,04,23,12,13,9.00
2014,04,23,12,14,9.00
2014,04,23,12,15,9.00
2014,04,23,12,16,9.00
2014,04,23,12,17,9.10
2014,04,23,12,18,9.10
2014,04,23,12,19,9.10
2014,04,23,12,20,9.20
2014,04,23,12,21,9.20
2014,04,23,12,22,9.20
2014,04,23,12,23,9.30
2014,04,23,12,24,9.30
2014,04,23,12,25,9.30
2014,04,23,12,26,9.30
2014,04,23,12,27,9.40
2014,04,23,12,28,9.50
2014,04,23,12,29,9.60
2014,04,23,12,30,9.70
2014,04,23,12,31,9.80
2014,04,23,12,32,9.80
2014,04,23,12,33,9.90
2014,04,23,12,34,9.90
2014,04,23,12,35,9.90
2014,04,23,12,36,9.90
2014,04,23,12,37,9.90
2014,04,23,12,38,9.90
2014,04,23,12,39,9.80
2014,04,23,12,40,9.70
2014,04,23,12,41,9.70
2014,04,23,12,42,9.70
2014,04,23,12,43,9.70
2014,04,23,12,44,9.70
2014,04,23,12,45,9.80
2014,04,23,12,46,9.90
2014,04,23,12,47,9.90
2014,04,23,12,48,9.80
2014,04,23,12,49,9.80
2014,04,23,12,50,9.80
2014,04,23,12,51,9.90
2014,04,23,12,52,10.00
2014,04,23,12,53,10.00
2014,04,23,12,54,10.10
2014,04,23,12,55,10.10
2014,04,23,12,56,10.10
2014,04,23,12,57,10.10
2014,04,23,12,58,10.10
2014,04,23,12,59,10.00
2014,04,23,13,00,10.00
2014,04,23,13,01,10.10
2014,04,23,13,02,10.10
2014,04,23,13,03,10.20
2014,04,23,13,04,10.20
2014,04,23,13,05,10.30
2014,04,23,13,06,10.40
2014,04,23,13,07,10.40
2014,04,23,13,08,10.50
2014,04,23,13,09,10.60
2014,04,23,13,10,10.60
2014,04,23,13,11,10.70
2014,04,23,13,12,10.80
2014,04,23,13,13,10.70
2014,04,23,13,14,10.70
2014,04,23,13,15,10.60
2014,04,23,13,16,10.60
2014,04,23,13,17,10.60
2014,04,23,13,18,10.60
2014,04,23,13,19,10.60
2014,04,23,13,20,10.60
2014,04,23,13,21,10.50
2014,04,23,13,22,10.50
2014,04,23,13,23,10.50
2014,04,23,13,24,10.50
2014,04,23,13,25,10.50
2014,04,23,13,26,10.50
2014,04,23,13,27,10.40
2014,04,23,13,28,10.40
2014,04,23,13,29,10.30
2014,04,23,13,30,10.30
2014,04,23,13,31,10.20
2014,04,23,13,32,10.30
2014,04,23,13,33,10.30
2014,04,23,13,34,10.30
2014,04,23,13,35,10.30
2014,04,23,13,36,10.30
2014,04,23,13,37,10.30
2014,04,23,13,38,10.30
2014,04,23,13,39,10.30
2014,04,23,13,40,10.30
2014,04,23,13,41,10.30
2014,04,23,13,42,10.30
2014,04,23,13,43,10.30
2014,04,23,13,44,10.20
2014,04,23,13,45,10.30
2014,04,23,13,46,10.30
2014,04,23,13,47,10.40
2014,04,23,13,48,10.40
2014,04,23,13,49,10.40
2014,04,23,13,50,10.40
2014,04,23,13,51,10.50
2014,04,23,13,52,10.50
2014,04,23,13,53,10.60
2014,04,23,13,54,10.60
2014,04,23,13,55,10.70
2014,04,23,13,56,10.70
2014,04,23,13,57,10.80
2014,04,23,13,58,10.80
2014,04,23,13,59,10.80
2014,04,23,14,00,10.80
2014,04,23,14,01,10.70
2014,04,23,14,02,10.70
2014,04,23,14,03,10.60
2014,04,23,14,04,10.60
2014,04,23,14,05,10.50
2014,04,23,14,06,10.50
2014,04,23,14,07,10.50
2014,04,23,14,08,10.60
2014,04,23,14,09,10.60
2014,04,23,14,10,10.70
2014,04,23,14,11,10.70
2014,04,23,14,12,10.80
2014,04,23,14,13,10.80
2014,04,23,14,14,10.90
2014,04,23,14,15,10.90
2014,04,23,14,16,11.00
2014,04,23,14,17,11.00
2014,04,23,14,18,11.00
2014,04,23,14,19,11.00
2014,04,23,14,20,11.10
2014,04,23,14,21,11.10
2014,04,23,14,22,11.10
2014,04,23,14,23,11.10
2014,04,23,14,24,11.10
2014,04,23,14,25,11.10
2014,04,23,14,26,11.10
2014,04,23,14,27,11.00
2014,04,23,14,28,10.90
2014,04,23,14,29,10.90
2014,04,23,14,30,10.90
2014,04,23,14,31,10.80
2014,04,23,14,32,10.80
2014,04,23,14,33,10.80
2014,04,23,14,34,10.80
2014,04,23,14,35,10.80
2014,04,23,14,36,10.90
2014,04,23,14,37,10.90
2014,04,23,14,38,11.00
2014,04,23,14,39,11.00
2014,04,23,14,40,11.00
2014,04,23,14,41,11.00
2014,04,23,14,42,11.00
2014,04,23,14,43,11.00
2014,04,23,14,44,11.10
2014,04,23,14,45,11.10
2014,04,23,14,46,11.20
2014,04,23,14,47,11.20
2014,04,23,14,48,11.20
2014,04,23,14,49,11.20
2014,04,23,14,50,11.20
2014,04,23,14,51,11.10
2014,04,23,14,52,11.10
2014,04,23,14,53,11.10
2014,04,23,14,54,11.20
2014,04,23,14,55,11.20
2014,04,23,14,56,11.20
2014,04,23,14,57,11.30
2014,04,23,14,58,11.40
2014,04,23,14,59,11.50
2014,04,23,15,00,11.60
2014,04,23,15,01,11.60
2014,04,23,15,02,11.60
2014,04,23,15,03,11.60
2014,04,23,15,04,11.60
2014,04,23,15,05,11.60
2014,04,23,15,06,11.60
2014,04,23,15,07,11.50
2014,04,23,15,08,11.50
2014,04,23,15,09,11.40
2014,04,23,15,10,11.40
2014,04,23,15,11,11.40
2014,04,23,15,12,11.40
2014,04,23,15,13,11.40
2014,04,23,15,14,11.40
2014,04,23,15,15,11.40
2014,04,23,15,16,11.40
2014,04,23,15,17,11.50
2014,04,23,15,18,11.60
2014,04,23,15,19,11.60
2014,04,23,15,20,11.50
2014,04,23,15,21,11.50
2014,04,23,15,22,11.60
2014,04,23,15,23,11.60
2014,04,23,15,24,11.60
2014,04,23,15,25,11.60
2014,04,23,15,26,11.60
2014,04,23,15,27,11.50
2014,04,23,15,28,11.50
2014,04,23,15,29,11.50
2014,04,23,15,30,11.50
2014,04,23,15,31,11.50
2014,04,23,15,32,11.50
2014,04,23,15,33,11.60
2014,04,23,15,34,11.60
2014,04,23,15,35,11.70
2014,04,23,15,36,11.70
2014,04,23,15,37,11.80
2014,04,23,15,38,11.80
2014,04,23,15,39,11.80
2014,04,23,15,40,11.70
2014,04,23,15,41,11.70
2014,04,23,15,42,11.70
2014,04,23,15,43,11.80
2014,04,23,15,44,11.80
2014,04,23,15,45,11.90
2014,04,23,15,46,11.90
2014,04,23,15,47,11.90
2014,04,23,15,48,11.80
2014,04,23,15,49,11.80
2014,04,23,15,50,11.70
2014,04,23,15,51,11.70
2014,04,23,15,52,11.70
2014,04,23,15,53,11.70
2014,04,23,15,54,11.70
2014,04,23,15,55,11.60
2014,04,23,15,56,11.60
2014,04,23,15,57,11.60
2014,04,23,15,58,11.60
2014,04,23,15,59,11.50
2014,04,23,16,00,11.50
2014,04,23,16,01,11.40
2014,04,23,16,02,11.40
2014,04,23,16,03,11.40
2014,04,23,16,04,11.50
2014,04,23,16,05,11.50
2014,04,23,16,06,11.50
2014,04,23,16,07,11.40
2014,04,23,16,08,11.40
2014,04,23,16,09,11.40
2014,04,23,16,10,11.40
2014,04,23,16,11,11.40
2014,04,23,16,12,11.40
2014,04,23,16,13,11.30
2014,04,23,16,14,11.30
2014,04,23,16,15,11.20
2014,04,23,16,16,11.20
2014,04,23,16,17,11.20
2014,04,23,16,18,11.20
2014,04,23,16,19,11.20
2014,04,23,16,20,11.10
2014,04,23,16,21,11.20
2014,04,23,16,22,11.20
2014,04,23,16,23,11.10
2014,04,23,16,24,11.10
2014,04,23,16,25,11.10
2014,04,23,16,26,11.10
2014,04,23,16,27,11.00
2014,04,23,16,28,11.00
2014,04,23,16,29,10.90
2014,04,23,16,30,10.90
2014,04,23,16,31,10.90
2014,04,23,16,32,10.90
2014,04,23,16,33,10.90
2014,04,23,16,34,10.90
2014,04,23,16,35,10.90
2014,04,23,16,36,10.90
2014,04,23,16,37,10.90
2014,04,23,16,38,10.90
2014,04,23,16,39,10.90
2014,04,23,16,40,10.90
2014,04,23,16,41,11.00
2014,04,23,16,42,11.00
2014,04,23,16,43,11.00
2014,04,23,16,44,11.00
2014,04,23,16,45,11.00
2014,04,23,16,46,11.00
2014,04,23,16,47,11.00
2014,04,23,16,48,11.00
2014,04,23,16,49,11.10
2014,04,23,16,50,11.10
2014,04,23,16,51,11.00
2014,04,23,16,52,11.00
2014,04,23,16,53,11.00
2014,04,23,16,54,11.00
2014,04,23,16,55,11.00
2014,04,23,16,56,11.00
2014,04,23,16,57,11.00
2014,04,23,16,58,11.00
2014,04,23,16,59,11.00
2014,04,23,17,00,11.00
2014,04,23,17,01,11.00
2014,04,23,17,02,11.00
2014,04,23,17,03,10.90
2014,04,23,17,04,10.90
2014,04,23,17,05,10.90
2014,04,23,17,06,10.90
2014,04,23,17,07,10.90
2014,04,23,17,08,10.90
2014,04,23,17,09,10.90
2014,04,23,17,10,10.90
2014,04,23,17,11,10.90
2014,04,23,17,12,10.90
2014,04,23,17,13,10.90
2014,04,23,17,14,10.90
2014,04,23,17,15,10.90
2014,04,23,17,16,10.90
2014,04,23,17,17,10.90
2014,04,23,17,18,10.90
2014,04,23,17,19,10.90
2014,04,23,17,20,10.90
2014,04,23,17,21,10.90
2014,04,23,17,22,10.90
2014,04,23,17,23,10.90
2014,04,23,17,24,10.90
2014,04,23,17,25,10.90
2014,04,23,17,26,10.90
2014,04,23,17,27,10.80
2014,04,23,17,28,10.80
2014,04,23,17,29,10.80
2014,04,23,17,30,10.80
2014,04,23,17,31,10.90
2014,04,23,17,32,10.90
2014,04,23,17,33,10.90
2014,04,23,17,34,10.90
2014,04,23,17,35,10.90
2014,04,23,17,36,10.90
2014,04,23,17,37,10.90
2014,04,23,17,38,10.90
2014,04,23,17,39,10.90
2014,04,23,17,40,10.90
2014,04,23,17,41,10.90
2014,04,23,17,42,10.90
2014,04,23,17,43,10.90
2014,04,23,17,44,10.90
2014,04,23,17,45,10.90
2014,04,23,17,46,11.00
2014,04,23,17,47,11.00
2014,04,23,17,48,11.00
2014,04,23,17,49,11.00
2014,04,23,17,50,11.10
2014,04,23,17,51,11.10
2014,04,23,17,52,11.10
2014,04,23,17,53,11.10